Regional Weather Roundup
Issued by NWS

Home | Current Version | Previous Version | Text Only | Print | Product List | Glossary On
Versions: 1 2 3 4 5 6 7 8 9 10 11 12 13 14 15 16 17 18 19 20 21 22 23 24 25 26 27 28 29 30 31 32 33 34 35 36 37 38 39 40 41 42 43 44 45 46 47 48 49 50
000
ASUS44 KOUN 280610
RWROK

WEATHER ROUNDUP FOR OKLAHOMA
NATIONAL WEATHER SERVICE NORMAN OK
100 AM CDT SAT MAY 28 2016

NOTE: "FAIR" INDICATES FEW OR NO CLOUDS BELOW 12,000 FEET WITH NO
      SIGNIFICANT WEATHER AND/OR OBSTRUCTIONS TO VISIBILITY.

OKZ001>007-009>012-014-015-017-280700-
NORTHWEST OKLAHOMA AND THE PANHANDLE

CITY           SKY/WX    TMP DP  RH WIND       PRES   REMARKS
GAGE           CLEAR     57  48  72 W8        29.83R
6HR MIN TEMP:  57; 6HR MAX TEMP:  77;

GUYMON         CLEAR     51  44  77 SW9       29.89R
ENID/WOODRING  CLEAR     63  59  88 S10       29.75R
$$

OKZ016-021>023-033>039-044-045-280700-
SOUTHWEST OKLAHOMA

CITY           SKY/WX    TMP DP  RH WIND       PRES   REMARKS
LAWTON/REGL    CLEAR     69  65  86 SE8       29.79S
6HR MIN TEMP:  69; 6HR MAX TEMP:  85;

LAWTON/FT SILL CLEAR     68  66  94 S9        29.78S
CLINTON        CLEAR     64  48  56 NW10      29.84R
HOBART         CLEAR     69  64  84 S8        29.80S
ALTUS AFB      CLEAR     62  59  91 NE6       29.77S
$$

OKZ018>020-024>031-280700-
CENTRAL OKLAHOMA

CITY           SKY/WX    TMP DP  RH WIND       PRES   REMARKS
OKLAHOMA CITY  CLEAR     64  61  90 S9        29.78R
6HR MIN TEMP:  63; 6HR MAX TEMP:  70; 6HR PCP: TRACE;

OKC/WILEY POST CLEAR     66  61  84 S10       29.78R
OKC/TINKER AFB CLEAR     64  60  87 S12       29.78R
STILLWATER     CLEAR     64  59  83 S8        29.76R
GUTHRIE        CLEAR     66  61  84 S9        29.77R
$$

OKZ008-013-054>072-280700-
NORTHEAST OKLAHOMA

CITY           SKY/WX    TMP DP  RH WIND       PRES   REMARKS
TULSA          PTCLDY    68  65  90 SE8       29.75S
6HR MIN TEMP:  67; 6HR MAX TEMP:  77;

TULSA/JONES    CLEAR     70  57  63 S3        29.77R
PONCA CITY     CLEAR     66  59  78 S7        29.73F
BARTLESVILLE   CLEAR     61  58  90 SE3       29.77S
MUSKOGEE       CLEAR     64  61  90 S5        29.80R
$$

OKZ032-040>043-046>053-073>077-280700-
SOUTH CENTRAL/SOUTHEAST OKLAHOMA

CITY           SKY/WX    TMP DP  RH WIND       PRES   REMARKS
ARDMORE/DWNTWN CLEAR     64  63  94 SE5       29.81S
MCALESTER      CLEAR     67  62  84 S7        29.82R
$$





USA.gov is the U.S. government's official web portal to all federal, state and local government web resources and services.